Vorticity
4 3 5 7 3 4 6 1 5 8 7 6 4 3 4 4 6 8 8 6 5 7 4 3 5 7 9 9 10 10 10 9
4 9 7 5 5 8 6 1 7 5 5 2 2 4 4 6 8 7 7 8 8 7 7 9 10 10 10 10 9 13 16 14
6 6 9 10 6 3 3 6 2 1 -1 -1 2 7 4 4 7 7 6 5 5 5 6 8 8 8 7 9 10 10 10 9
3 10 9 4 8 9 9 7 2 2 -2 1 9 3 7 8 11 10 9 11 13 12 10 7 4 4 5 6 7 7 6 4
4 10 3 8 10 2 1 8 6 5 6 10 6 7 9 11 9 8 9 8 7 7 7 7 6 7 7 5 6 7 10 12
5 4 6 6 5 4 5 7 6 8 12 7 9 15 8 8 9 5 5 5 5 5 4 7 8 10 13 14 13 11 10 13
5 6 3 6 7 7 10 11 11 5 10 11 9 2 8 0 3 7 6 3 1 1 1 3 5 7 7 6 8 11 15 18
4 3 6 7 9 8 6 6 7 8 4 -3 10 9 7 -1 1 3 4 7 6 5 1 1 9 13 14 13 14 15 15 12
5 8 8 8 7 4 7 7 9 6 -0 3 10 10 9 7 9 9 11 9 5 2 12 16 5 7 10 10 12 12 14 14
12 12 9 5 7 5 4 6 10 10 5 -0 0 -0 5 -2 -9 7 4 7 6 14 3 14 12 19 18 26 18 15 18 18
8 10 9 3 3 11 8 7 7 6 7 8 10 8 4 2 9 5 11 3 4 4 8 0 24 2 27 24 15 20 7 17
12 5 2 9 9 4 4 5 6 5 8 11 6 2 4 4 10 9 10 14 15 9 7 28 20 24 30 21 23 9 14 16
1 3 4 -3 6 10 10 10 8 7 8 3 7 7 4 6 8 -0 7 11 15 26 24 28 39 15 21 20 13 17 18 15
-1 2 9 8 8 9 9 10 7 4 5 11 8 7 9 9 10 9 12 23 16 31 32 38 19 18 15 13 15 12 12 13
8 8 7 8 10 8 9 8 8 10 5 3 4 -1 9 12 9 12 22 27 29 46 24 15 11 9 9 7 11 14 16 14
5 7 8 9 10 9 8 10 6 7 12 9 2 12 13 14 23 26 28 45 34 11 6 6 4 1 4 11 21 13 5 8
8 10 10 6 8 8 11 4 5 4 6 17 11 15 22 24 33 30 28 19 18 11 13 13 17 16 16 16 7 8 10 12
10 8 8 11 10 11 6 8 4 8 15 7 13 15 32 27 29 24 16 10 11 14 15 16 17 16 13 8 7 10 12 10
6 5 7 12 11 4 5 -2 8 6 15 15 19 32 23 24 21 12 11 13 13 14 14 13 12 8 7 8 9 12 12 14
Height
5804 5803 5800 5797 5794 5790 5785 5780 5777 5773 5769 5765 5761 5757 5753 5749 5744 5740 5735 5730 5726 5721 5717 5712 5708 5704 5701 5699 5696 5694 5691 5687
5800 5798 5796 5792 5788 5784 5780 5775 5770 5766 5761 5757 5752 5749 5744 5739 5733 5728 5723 5718 5714 5710 5706 5701 5696 5690 5685 5682 5680 5677 5675 5671
5797 5793 5789 5786 5782 5777 5773 5767 5761 5756 5751 5745 5740 5736 5730 5727 5722 5717 5710 5704 5699 5694 5690 5686 5679 5674 5669 5666 5663 5660 5657 5655
5791 5786 5783 5779 5774 5770 5765 5760 5754 5748 5742 5737 5732 5726 5721 5716 5710 5705 5700 5694 5688 5682 5676 5671 5664 5659 5655 5651 5647 5644 5642 5638
5784 5780 5776 5771 5767 5762 5757 5751 5746 5741 5735 5728 5722 5717 5711 5705 5698 5691 5684 5678 5673 5667 5662 5656 5651 5645 5640 5635 5630 5626 5623 5620
5775 5771 5767 5762 5757 5752 5746 5740 5736 5731 5725 5718 5713 5706 5698 5690 5683 5678 5672 5665 5658 5652 5646 5641 5636 5630 5624 5617 5612 5606 5601 5598
5765 5759 5754 5751 5746 5741 5736 5731 5725 5718 5710 5703 5696 5688 5681 5675 5668 5662 5656 5649 5642 5634 5626 5619 5613 5607 5601 5595 5589 5584 5579 5577
5754 5750 5744 5739 5733 5727 5720 5714 5708 5700 5693 5685 5678 5671 5665 5658 5652 5645 5637 5630 5623 5616 5609 5602 5594 5587 5581 5574 5568 5563 5558 5554
5744 5739 5734 5727 5722 5716 5710 5704 5696 5689 5682 5675 5667 5660 5651 5643 5635 5627 5618 5608 5601 5595 5589 5582 5574 5566 5560 5554 5548 5543 5538 5534
5737 5732 5726 5720 5713 5707 5700 5693 5686 5678 5670 5662 5654 5644 5635 5626 5618 5607 5598 5589 5580 5572 5565 5559 5552 5545 5538 5532 5527 5521 5518 5514
5730 5724 5717 5710 5704 5697 5689 5681 5673 5664 5655 5646 5638 5628 5618 5607 5598 5589 5578 5568 5559 5550 5542 5535 5528 5521 5516 5511 5505 5501 5498 5493
5720 5713 5706 5698 5690 5682 5673 5665 5657 5648 5640 5630 5619 5610 5599 5589 5578 5567 5557 5547 5538 5528 5519 5511 5504 5498 5493 5489 5483 5479 5477 5474
5706 5699 5693 5686 5678 5669 5660 5651 5641 5631 5621 5612 5601 5589 5579 5569 5558 5546 5536 5526 5516 5506 5495 5486 5479 5473 5470 5467 5464 5460 5458 5456
5695 5688 5680 5671 5662 5653 5643 5633 5624 5614 5603 5592 5581 5570 5558 5546 5535 5525 5514 5503 5492 5482 5473 5466 5461 5457 5453 5450 5447 5444 5441 5438
5682 5674 5665 5656 5647 5637 5627 5617 5606 5596 5585 5573 5561 5549 5537 5524 5513 5502 5490 5480 5469 5461 5455 5450 5445 5442 5438 5436 5432 5429 5425 5422
5669 5660 5650 5641 5632 5621 5610 5599 5589 5578 5566 5553 5540 5528 5515 5504 5491 5479 5467 5457 5450 5445 5440 5435 5431 5427 5424 5421 5417 5414 5411 5406
5654 5644 5635 5625 5615 5606 5595 5583 5571 5559 5545 5532 5520 5507 5494 5480 5468 5458 5450 5444 5439 5434 5428 5423 5418 5413 5409 5406 5403 5400 5396 5391
5640 5630 5619 5608 5596 5585 5575 5564 5551 5539 5525 5511 5497 5483 5471 5460 5450 5442 5436 5431 5426 5420 5414 5409 5404 5399 5396 5392 5389 5385 5380 5375
5621 5611 5601 5590 5579 5568 5557 5545 5534 5520 5507 5493 5479 5466 5455 5444 5436 5430 5423 5418 5412 5407 5401 5395 5391 5386 5382 5378 5374 5370 5364 5359